CAPE
2890 3567 3578 3534 3432 3737 3725 3378 3406 3244 3285 3390 3553 3520 3650 3503 3357 3200 2738 2812 3075 3240 3995 3928 3123 2822 2885 2971 2604 2558 2765 2816 2867 2819 3003 3514 3678 2661 2251 2121 1882 1500 1602 1574 986 1310 1219 1010 958 744 398 165 1 8 16 56 221 249 265 282 162 350 495 667 810 1004 1058 852 1064 1226 1381 1534 1661 1818 1801 1783 1804 2024 2007 1967 1972 1812 1689 1682 1900
3285 3860 3666 3720 3450 3545 3487 3528 3504 3544 3587 3538 3408 3322 3412 3470 3394 3171 2949 3286 3408 4162 4216 3826 3369 2838 2876 2932 2316 1755 1634 2506 2279 1681 1902 1736 2305 3346 2869 2613 3158 2895 2519 2111 1621 1256 1218 1074 887 730 485 191 66 52 33 51 70 84 136 188 229 269 395 692 817 811 820 763 1156 1374 1417 1509 1746 1773 1823 1862 1974 1809 1894 1944 1992 1818 1559 1458 1601
3235 3147 3694 3546 3596 3600 3691 3481 3552 3611 3721 3720 3677 3530 3704 3720 3584 3607 3437 4028 3379 4005 3897 3854 3583 3355 2763 3064 2404 1677 1730 2487 842 615 1154 1778 2148 2608 2457 2306 2512 2700 2653 2534 2198 1941 1616 1336 1335 1114 962 788 539 277 263 208 167 181 181 178 355 564 575 814 963 757 900 1198 1258 1033 976 1155 1480 1587 1619 1651 1900 1940 1748 1709 1778 1611 1600 1517 1351
3200 3224 2954 3294 3530 3918 3720 3682 3534 3344 3249 3211 3432 3641 3910 3737 4015 3628 3770 4066 3640 3451 4270 3552 2267 2873 3017 2339 2204 841 666 568 581 331 323 474 481 1989 2325 2105 1953 1922 1945 2122 2021 2010 2084 1677 1402 1598 1641 1368 1049 1042 868 620 458 447 473 534 497 455 547 456 644 833 822 1099 784 895 880 751 838 1143 1647 1663 899 1724 1415 1627 1597 1553 1585 1728 1507
3021 2822 2458 2885 3308 3156 3556 3556 3264 3153 3152 2775 2918 3516 3864 3695 3826 3663 3557 3556 3156 3476 3615 3048 1996 876 780 653 233 518 306 374 498 221 211 336 229 395 801 895 1282 1614 1608 1427 1486 1704 1866 1882 1917 1868 1686 1796 1741 1619 1325 896 928 775 664 784 720 714 744 693 660 1049 961 973 944 1110 856 609 774 873 821 1606 1592 1561 1151 1212 1254 1248 1345 1592 1723
2589 2740 2805 2744 2954 3243 3449 3546 3414 3176 3091 2982 3291 3470 3722 3867 3758 3614 3111 2724 2309 2172 1710 804 987 983 782 386 295 352 316 274 437 216 135 279 231 354 456 738 1358 1319 1027 890 1021 1210 1482 1759 1944 1805 1585 1690 1670 1426 1282 1253 1194 922 854 722 888 792 986 874 1046 1201 1244 1075 1032 1121 892 941 1079 885 944 863 1198 1098 1425 1323 1136 921 1146 1644 1938
2914 2671 2681 2733 2856 3225 3402 3335 3370 3150 2946 3264 3752 4002 4008 3517 3104 2804 2394 2252 2081 1657 1268 1053 787 755 617 392 313 323 178 351 427 391 338 318 211 316 307 552 1555 1382 1178 1380 1396 1518 1464 1631 1726 1701 1443 1479 1684 1870 1925 1694 1602 1330 1090 860 873 850 1105 1052 1054 1135 1306 1624 1227 1235 1304 1062 1094 1548 1456 1049 681 1434 1231 1068 901 849 922 1348 1945
2992 3122 2973 2732 3052 3122 3267 3399 3318 2892 3252 3682 3618 3461 3470 3246 2906 2441 2071 1618 1570 1826 1347 782 801 820 726 564 552 462 294 400 299 460 380 257 229 266 408 448 907 1345 1268 1502 1180 1740 1741 1917 1708 1882 1440 1377 1359 1375 1308 864 1080 1122 1093 1132 1076 1058 1215 736 757 952 1164 1170 1539 1703 1416 1441 1518 1556 1274 1504 1012 732 668 702 592 1141 1164 588 1216
2762 2852 2993 2952 3160 3351 3494 3361 3038 2945 3406 3048 3156 3275 3280 2902 2310 1802 1569 1346 1360 1092 1296 1436 1046 782 835 684 807 596 425 292 26 288 336 485 486 465 518 466 583 800 1114 1238 1586 1602 1574 1712 1734 1700 1870 1957 1740 1676 1290 693 1231 1772 1593 1297 1368 1275 1314 1386 1337 1549 1385 1049 1307 1168 1280 951 1082 1721 2005 1936 1258 821 583 548 330 1023 538 488 1050
2850 2735 2809 2996 3216 3301 3146 2918 3178 3108 2922 3006 3071 2901 2542 2147 1638 1346 1218 1130 1190 1272 1616 1253 1102 1053 899 1002 519 552 460 346 238 334 485 490 521 501 553 529 458 473 470 539 809 651 1435 1755 1444 950 1234 976 1421 1624 1539 1288 524 481 1162 1566 1700 1496 1575 1559 906 1049 1587 1609 474 378 242 381 400 578 1941 1176 1167 1235 474 589 833 953 1245 1041 985
3210 2701 2669 2962 3182 3284 3205 2998 3245 3043 2716 2590 2466 2283 1852 1558 1347 1296 1070 955 1142 1340 1242 1312 936 639 573 418 364 270 174 110 90 106 248 286 437 499 442 490 437 358 494 386 313 258 496 1215 1190 944 1032 1182 1518 1164 1632 1045 928 1004 937 568 670 735 1268 1340 848 824 848 1026 945 596 364 296 438 1352 1581 1107 958 686 574 617 403 154 902 1613 1833
3371 3033 2566 2852 3172 3897 3664 3026 3278 2740 2264 1966 2208 1806 1497 1375 1149 884 942 1350 1673 1276 1221 753 526 751 605 330 398 348 325 183 120 83 210 208 271 264 311 465 446 424 395 324 215 212 331 438 454 724 821 862 722 1200 1095 935 690 879 1435 1612 1302 1376 918 1020 1192 979 898 718 711 708 538 646 714 615 273 832 828 770 644 364 204 168 801 1422 1547
3158 3102 2906 2955 3538 3302 3248 3151 3046 2463 1984 2050 1784 1004 1117 1018 790 955 1392 1630 1058 1099 950 678 732 602 386 372 474 424 350 168 211 97 178 174 222 182 238 268 349 366 380 252 208 234 263 364 301 280 354 477 384 483 638 835 1144 1457 741 1218 1425 1258 1044 1112 1247 1385 1127 742 662 665 669 800 470 500 527 206 704 662 800 656 462 416 793 876 1859
2526 2753 2970 3010 3488 3375 3276 3549 2928 2334 2018 2034 1550 1057 1089 738 652 692 1043 914 714 545 252 111 256 238 356 336 466 455 309 169 182 48 58 164 210 267 302 235 286 264 201 249 188 190 163 136 238 215 248 282 284 324 318 297 334 375 626 855 736 1024 1327 1167 1080 1004 1358 1227 1154 895 992 957 831 716 471 510 474 1109 706 384 715 635 754 958 726
2664 2673 3046 3318 3436 3438 3506 3415 2826 2360 1868 1811 1556 1353 1030 704 806 718 883 764 722 451 406 311 266 408 390 432 496 441 191 123 186 170 226 164 194 212 326 292 241 222 220 192 221 187 78 98 155 173 201 216 244 268 264 240 320 392 496 776 1008 944 958 900 892 817 667 780 748 1193 482 689 776 731 768 676 695 650 670 337 262 666 213 729 686
2573 2757 3014 3336 3660 3393 3078 3304 2755 2184 1948 1699 1798 1456 888 836 959 898 831 877 698 600 580 403 422 464 582 490 349 274 285 169 246 286 231 180 220 290 295 281 260 244 182 188 118 113 125 120 82 99 203 224 242 258 246 160 248 299 430 795 992 775 865 1077 1022 960 1061 1482 1594 1607 1117 1200 1444 1250 1274 742 789 751 773 599 819 1009 557 493 712
2402 2639 2986 3348 3458 3424 2826 2822 2294 1823 1793 1677 1875 1438 1037 998 1030 949 908 933 926 875 750 744 684 491 587 499 300 172 129 114 7 0 16 162 318 246 219 180 209 174 148 149 144 137 142 124 150 122 156 198 223 258 243 234 328 416 401 532 770 876 1028 1094 854 1084 1014 1234 1617 1198 1217 867 927 696 1439 1192 978 1055 1003 995 790 913 476 362 518
2516 2987 3063 3019 2991 3032 2430 2265 1930 1578 1644 1794 2040 1471 1148 1161 884 1029 973 989 1097 1004 936 862 770 582 457 457 421 226 78 62 50 1 14 161 267 228 184 142 124 129 140 178 194 196 194 225 226 199 180 196 222 252 321 373 390 327 257 458 598 773 1206 1424 1262 880 308 658 1349 1586 689 318 498 782 613 877 759 1004 1141 1028 602 299 286 255 344
2448 2367 2602 2808 2788 2440 1930 1490 1263 1438 1720 2016 2055 1447 1174 1066 879 826 937 915 1012 853 796 1032 710 410 316 312 181 193 236 61 16 28 94 200 223 204 215 172 146 140 168 179 209 175 177 212 340 307 178 207 251 310 405 520 651 689 723 564 271 293 332 442 599 616 758 1200 1149 546 401 536 723 592 560 479 704 787 996 1086 808 469 420 794 750
2174 2371 2919 2842 2301 1660 1101 1069 1018 1402 1771 1940 1523 1005 804 939 1150 999 934 1086 1151 1052 1071 866 714 532 474 438 274 159 131 76 31 7 12 48 155 188 194 156 155 122 140 162 212 234 275 332 296 281 337 298 362 378 438 561 760 1085 1091 656 531 423 398 460 341 248 365 568 453 444 544 448 325 722 699 522 462 599 585 843 760 489 306 352 457
2131 2280 2608 2349 1526 872 893 1036 1112 1436 2010 1472 853 651 413 606 1115 945 1028 1020 988 853 713 740 490 602 506 435 258 282 218 131 36 34 37 98 165 153 128 185 250 271 246 205 241 344 487 619 736 837 834 920 754 716 707 931 1134 1115 794 785 792 732 478 670 664 638 554 509 294 224 256 322 399 390 388 345 532 567 632 834 1006 913 676 1040 1095
2149 2011 1814 1779 1458 1072 926 1083 1128 1652 1539 828 582 548 360 439 609 650 420 545 487 610 769 830 653 443 368 356 292 192 114 49 12 14 58 142 116 114 125 157 204 190 240 275 362 459 535 718 796 868 1019 1419 1263 864 864 983 952 1122 1121 1111 1117 683 676 502 470 362 585 550 282 410 228 93 302 255 303 423 265 448 487 415 470 503 472 358 410
2308 1903 1865 1724 1589 1252 1194 1360 1481 1701 1336 876 656 460 496 617 436 500 484 282 92 203 595 864 678 458 530 456 382 255 194 90 21 10 4 0 1 6 27 110 167 162 187 275 356 431 544 736 877 1034 1371 1588 1415 1070 878 886 1038 1153 1149 831 841 992 747 511 267 273 168 162 272 288 190 194 179 194 308 378 401 383 480 377 363 348 315 359 386
2212 2177 1971 1903 1991 1726 1816 2061 2470 2192 1536 1005 798 696 636 650 524 457 503 416 325 279 347 781 830 616 538 470 425 352 169 9 0 0 0 0 1 9 13 17 104 180 229 370 483 651 842 978 1202 1329 1407 1459 1458 1324 1109 789 1068 1038 1079 1148 834 951 762 474 245 261 217 221 190 172 135 194 153 159 306 668 730 494 268 560 350 395 557 425 168
2988 2560 2422 2503 2424 2425 2725 2748 2746 2515 1936 1720 1906 1660 1220 1174 588 377 343 446 674 612 553 492 507 502 530 637 534 308 106 36 20 2 0 0 1 1 4 32 104 277 444 483 538 654 973 1280 1425 1400 1350 1428 1192 1154 1248 1296 1244 1211 1046 868 1063 1134 961 304 208 182 70 122 57 20 30 68 234 177 10 377 903 703 470 330 236 334 346 560 455
3580 3119 2840 2824 2932 3192 3171 2987 2943 2642 2300 2516 2504 2240 1831 1558 1196 535 330 412 542 644 596 517 298 322 609 550 427 294 88 26 22 8 6 26 18 24 20 4 0 0 2 8 47 195 669 1264 1388 1308 1376 1463 1562 1546 1467 1535 1289 1206 1151 1126 1042 866 484 204 196 126 79 54 22 6 11 32 52 116 100 96 337 749 281 568 460 131 260 355 318
3546 3265 3050 3070 3494 3524 3172 3079 2866 2347 2449 2706 2613 2144 1737 1813 1712 848 609 664 858 866 926 618 320 153 433 463 321 204 106 31 21 14 23 14 19 8 10 18 9 4 1 17 67 145 216 756 1354 1438 1302 1275 1498 1510 1628 1585 1427 1098 846 915 1027 913 400 205 214 98 56 42 18 14 14 17 23 56 55 87 101 566 646 523 448 171 246 440 840
3596 3310 3134 3233 3550 3436 3377 3154 2813 2624 2674 2478 2294 1994 1916 2191 1773 983 893 747 673 942 1048 895 618 539 616 438 286 177 73 44 28 22 25 46 82 68 96 67 18 6 0 0 6 114 168 276 386 772 1194 1542 1594 1558 1636 1636 1451 1080 951 878 750 616 339 213 130 46 40 35 8 13 55 46 31 30 32 85 109 175 820 648 464 272 206 329 335
3357 3349 3296 3358 3249 3497 3439 3166 2964 2783 2630 2352 1873 1878 2125 2281 1161 1112 804 778 880 1017 1110 777 770 874 966 636 384 192 45 29 20 58 85 160 179 157 100 54 12 2 0 0 63 169 276 403 498 797 1462 1738 1533 1536 1676 1616 1112 843 824 812 754 679 430 100 104 86 33 17 3 6 10 10 34 114 26 62 57 100 161 533 631 343 236 538 451
3057 3217 3201 3283 3371 3473 3522 3357 3193 2770 2687 2244 2228 2544 2405 2005 1282 1069 1111 794 959 1236 1256 962 728 872 837 573 392 311 162 82 76 108 226 270 113 80 50 22 12 2 0 21 260 436 484 593 604 578 946 1570 1626 1748 1461 731 321 694 730 806 723 716 656 283 107 67 17 4 0 1 2 6 5 10 82 135 0 18 20 4 258 862 820 558 167
2821 3019 3089 3238 3290 3458 3558 3472 3286 2904 2726 2292 2416 2189 2152 778 629 710 890 973 1012 1455 1427 1037 1070 1052 806 512 372 326 235 158 166 183 246 356 284 138 29 16 24 33 62 324 394 417 420 403 474 782 1098 1555 1638 1784 1302 644 430 445 861 833 678 685 630 350 108 64 39 20 6 3 1 8 17 17 4 0 0 0 10 1 2 54 75 44 454
2568 2763 2930 3091 3166 3322 3315 3256 3044 2860 2152 1986 2031 1376 1360 724 506 528 486 838 1228 1395 1200 1095 1131 1114 868 537 324 294 258 171 177 298 384 421 273 192 35 36 31 28 34 66 186 394 477 531 748 998 1143 1430 1481 1406 1281 874 551 552 640 922 680 573 619 640 274 176 85 49 48 40 21 4 9 4 3 1 0 0 0 0 0 0 2 19 50
2459 2594 2815 2950 2934 3137 3134 2827 2909 2277 1712 1524 1795 939 1350 924 749 771 759 774 1204 1240 941 972 994 953 736 452 379 278 215 198 228 322 369 418 314 196 78 24 5 8 35 201 274 255 390 553 717 785 762 1007 1210 1428 1316 1068 645 640 679 704 737 526 798 722 546 460 180 60 110 106 55 27 3 2 0 0 1 1 0 0 0 0 0 0 15
2258 2470 2637 2806 2866 2898 2943 2832 2627 1906 841 574 714 748 1232 778 583 787 966 1239 1278 914 644 828 920 739 690 440 297 286 263 248 349 407 450 453 290 141 56 5 0 11 33 109 190 275 327 428 391 470 647 879 1207 948 1140 1101 712 734 743 586 784 526 554 658 732 572 393 176 154 118 118 59 29 10 1 2 2 2 2 1 1 1 0 0 0
2184 2368 2442 2720 2864 3146 2918 2885 1866 671 526 678 721 976 1381 677 555 564 962 1550 1301 732 790 849 566 450 554 578 344 326 425 527 605 558 657 699 261 70 36 14 2 3 23 151 252 285 357 415 410 400 435 444 545 1232 1234 1016 709 746 754 388 843 590 658 734 809 620 369 344 214 140 170 133 76 46 32 0 0 1 1 1 1 1 2 0 93
2007 2304 2460 2848 3043 3045 2966 2331 1163 796 633 525 818 862 578 522 542 572 1034 1024 873 788 648 742 519 417 406 410 405 444 508 867 716 673 736 546 85 28 22 24 150 162 181 238 432 539 780 884 682 510 484 640 509 1019 1241 1050 702 611 754 1010 564 405 500 610 920 832 576 478 278 186 172 138 103 85 50 16 0 0 0 3 1 0 0 3 3
1888 2096 2505 3210 2918 2961 3091 3317 2577 1106 1133 805 901 826 597 460 524 635 710 652 532 639 734 634 482 320 306 340 446 489 510 528 598 644 696 386 70 26 16 48 204 196 89 52 110 80 292 720 771 701 444 542 765 1324 1132 1098 846 562 484 1093 332 278 458 846 1086 1008 799 406 351 320 200 226 216 168 114 70 23 0 1 3 4 1 3 4 5
1689 2206 2939 3116 2988 2893 3480 1997 972 1437 1125 925 1035 804 748 731 638 591 433 396 467 533 612 456 329 318 372 483 604 596 444 401 514 661 645 216 62 40 40 274 236 104 138 208 107 10 33 556 632 545 504 602 235 330 924 1098 1076 792 708 1274 581 335 388 851 971 1235 1106 507 452 310 252 280 266 229 145 103 57 18 5 3 4 3 3 5 6
1880 2289 2897 2768 2976 2964 2349 2193 1799 1566 1370 1717 1598 816 971 1224 963 609 206 196 333 463 412 209 287 322 498 674 579 451 409 385 557 463 351 200 181 130 79 498 335 186 356 657 374 492 573 710 184 102 293 630 760 361 754 1054 1152 999 868 1611 1361 553 642 795 772 1324 1380 924 558 392 252 240 224 192 140 102 46 27 9 2 6 4 3 4 44
2162 2408 2859 3063 2936 3194 2038 955 1912 2241 2185 2570 2334 1145 1037 888 726 594 285 231 400 515 423 254 250 310 510 683 598 518 533 506 430 412 563 662 485 316 222 208 180 72 203 447 782 496 544 655 691 865 788 295 576 728 570 842 1007 1220 1138 1461 1490 1133 846 796 942 1592 1537 889 627 540 409 276 224 147 132 107 67 40 10 1 6 6 3 1 16
2078 2184 2311 2538 2929 3353 2496 2630 2259 2905 2710 2937 2291 1914 1360 1396 1172 966 536 389 470 528 392 293 380 724 722 632 537 428 450 408 297 566 1111 672 604 313 280 655 548 269 534 672 702 596 547 637 575 583 463 780 657 158 250 528 1137 1349 1372 1140 1488 1507 1048 684 906 1268 1370 763 732 541 484 406 258 172 128 101 118 56 9 2 2 1 2 1 1
1763 2052 2292 2807 2512 2765 2396 1454 2874 3058 2430 2924 3280 2951 2508 2207 1791 1432 966 457 644 457 306 660 1516 1287 762 611 485 476 456 425 269 1066 748 659 598 485 270 319 554 918 743 764 722 675 758 798 869 830 801 879 605 544 870 964 1026 1302 1247 941 934 1480 1213 1025 1217 1311 898 772 976 795 567 492 310 203 109 138 102 53 1 1 1 0 0 1 3
1978 2243 2235 2296 2585 2578 1954 868 830 844 2631 3293 3145 3066 2731 2453 2459 2283 1047 559 776 1165 2098 2102 1319 968 884 721 633 536 572 732 1338 860 692 566 744 526 481 508 670 892 918 804 943 828 694 602 489 663 636 566 944 778 522 989 962 922 654 386 318 411 296 179 476 552 686 852 1072 894 796 468 339 182 80 121 84 62 6 2 1 0 0 1 7
1632 1740 2104 1805 2571 2650 2464 1293 574 1996 2761 2763 2813 2867 2756 2784 2725 2448 2112 2048 2666 2755 1947 898 642 706 480 252 366 572 893 1161 1035 891 750 531 614 662 576 804 928 752 833 834 1070 934 713 642 532 657 748 670 754 641 795 722 1280 672 29 0 0 0 0 22 350 654 822 919 948 808 679 332 142 77 60 89 78 86 45 4 1 0 1 2 11
1293 886 1779 1790 2001 2632 2577 2573 2742 2898 2692 2690 2535 2630 2612 2659 2737 2738 2976 2885 2664 1868 957 779 518 475 455 466 569 662 830 819 872 771 665 504 446 451 598 722 632 408 651 826 882 734 635 284 654 736 820 492 456 843 1190 624 469 599 437 330 148 0 0 0 25 398 979 1122 1078 430 58 0 20 15 46 63 113 102 71 25 6 2 8 12 11
2009 2244 2206 2110 2124 2272 2709 2875 2818 2456 2591 2602 2534 2286 2456 2630 2512 2920 2940 2214 1956 1273 771 654 354 393 484 632 666 586 808 878 707 444 455 469 470 495 431 574 623 544 655 780 951 927 652 545 710 585 628 466 621 736 944 1249 286 145 175 260 0 0 187 210 130 378 258 112 279 246 71 196 177 183 211 231 180 152 102 72 58 45 56 38 12
1919 2047 1864 1828 1944 1756 1974 2077 2267 2569 2151 1752 2012 2033 2050 2303 2668 2954 1928 1712 1267 980 812 558 524 462 748 737 419 148 131 367 619 552 415 341 328 382 414 513 472 382 503 745 816 859 917 905 866 639 516 428 481 916 869 478 95 50 158 134 330 350 201 188 180 247 412 356 354 552 514 143 52 121 140 134 117 140 232 177 154 82 58 75 62
2615 2132 1682 1631 1620 1514 1395 1584 1948 2320 2427 1958 1479 1782 1877 2021 2114 1362 972 1083 1104 746 738 520 517 556 634 632 328 70 155 217 233 232 173 220 547 544 339 225 438 512 687 800 822 785 809 876 609 458 413 557 616 539 242 1 0 0 0 0 9 161 258 340 86 79 79 6 40 396 1028 677 805 376 424 344 275 195 211 218 209 126 62 58 71
1797 1816 2162 2757 2721 2434 2595 2174 2242 2240 2050 1662 1685 1486 1400 1966 1338 918 1344 1031 944 557 542 661 545 326 455 223 218 402 364 331 364 444 226 174 618 435 260 369 742 549 538 459 484 454 642 412 279 538 473 466 400 90 6 0 0 0 0 0 0 0 0 0 1 0 0 0 290 92 196 147 147 124 144 179 261 299 220 224 134 163 117 64 46
2479 2699 2933 2657 2416 2521 2381 2306 2197 1674 1607 1661 1779 1663 1166 893 939 1322 1260 1293 1204 864 512 205 268 276 242 292 422 369 340 257 99 54 98 268 106 0 0 164 413 348 90 0 0 158 8 47 240 280 5 1 0 0 0 0 0 0 0 0 0 0 0 0 0 0 2 20 194 114 68 6 5 10 15 36 41 70 87 116 176 134 129 109 74
2080 2219 2118 2266 2163 1933 2106 1974 1841 1400 1428 1331 1241 1103 1140 748 973 974 990 1275 961 666 327 279 124 214 248 373 236 116 274 498 446 330 259 289 439 0 0 0 32 8 0 0 0 0 0 0 70 104 0 0 0 0 0 0 0 0 0 0 0 0 0 0 0 0 587 84 39 5 0 2 1 0 0 0 0 18 10 13 12 34 63 36 36
Wind_Speed
13 12 12 12 12 11 11 11 12 13 13 13 13 12 12 11 11 12 13 13 12 14 15 15 13 12 12 11 13 16 18 19 22 24 26 26 30 33 25 24 23 23 25 29 32 32 33 32 30 28 28 28 nan nan nan nan 24 22 21 23 22 22 26 28 25 26 25 22 21 21 22 24 23 24 22 21 21 22 21 20 21 22 23 25 28
10 10 11 12 12 12 12 12 13 14 13 12 12 11 10 10 9 11 12 12 13 14 16 18 15 14 15 15 15 17 18 19 20 21 22 23 27 31 32 28 26 25 25 27 29 29 28 29 28 25 25 26 nan nan nan nan nan nan 23 24 25 23 23 28 29 30 26 25 26 26 24 26 25 23 21 21 22 23 23 22 23 22 21 23 25
8 8 9 10 11 12 12 12 13 12 12 13 11 10 10 10 9 9 10 12 12 13 15 18 21 19 20 18 18 18 20 23 19 21 22 24 24 27 27 26 26 25 23 24 26 27 28 28 28 28 27 26 26 24 24 25 25 24 25 27 26 25 22 24 29 31 30 31 30 30 28 29 31 29 26 22 24 25 25 24 24 23 22 23 24
9 8 10 10 10 11 12 12 12 12 12 12 12 11 11 11 12 11 10 13 14 15 15 18 17 26 22 18 20 18 17 19 21 21 22 23 24 27 27 25 24 24 23 22 24 25 24 25 25 27 28 27 25 24 24 24 26 28 29 29 27 24 24 22 26 29 31 36 33 30 31 37 30 29 31 32 26 25 24 25 27 26 26 25 24
9 10 9 10 10 11 13 13 14 14 13 13 12 12 13 15 15 15 14 14 17 18 19 20 19 19 20 17 18 19 19 19 20 20 20 23 23 24 25 25 25 24 24 23 23 24 24 24 26 27 29 29 27 26 26 26 28 29 30 30 29 26 21 22 24 27 30 36 35 37 36 36 30 33 33 33 33 30 23 26 28 27 27 28 27
11 11 10 10 11 11 13 14 15 15 14 14 14 16 17 19 19 18 17 16 16 17 17 18 19 19 20 20 19 20 19 19 19 18 19 22 23 24 26 26 26 24 24 23 22 22 23 24 25 26 27 30 30 28 28 30 31 31 31 30 28 26 23 20 20 27 31 33 32 32 35 34 35 37 36 34 35 30 31 33 30 26 28 30 29
12 11 12 12 12 13 13 15 16 17 17 17 17 19 21 21 20 19 19 18 18 18 18 18 20 21 21 21 21 20 20 20 20 20 20 21 23 23 25 26 27 25 25 25 24 24 24 26 26 26 27 28 29 31 32 32 33 35 35 33 29 29 26 22 20 25 28 28 30 32 29 25 29 37 36 38 34 35 34 33 30 28 27 28 29
15 14 14 14 14 14 15 16 16 18 20 21 21 22 23 24 23 22 20 20 19 20 20 20 21 22 23 23 22 22 21 21 20 21 21 22 22 23 24 25 26 27 27 27 27 28 29 30 30 30 30 30 31 32 33 34 36 36 36 35 32 30 29 25 22 26 27 27 31 33 28 24 25 27 29 36 38 37 38 35 29 34 35 30 27
15 16 18 17 17 17 17 18 19 20 21 22 23 25 26 26 25 24 23 22 21 22 21 23 23 24 24 23 23 23 22 21 nan 21 21 22 22 24 24 25 26 27 28 29 30 31 34 35 35 35 36 36 36 34 36 33 33 35 35 35 33 31 31 28 24 24 26 26 32 31 27 26 26 28 32 37 38 37 34 34 31 36 33 29 29
17 17 19 20 20 20 20 21 22 22 22 24 25 26 27 27 27 26 25 23 23 23 24 24 26 26 25 25 24 24 23 22 22 22 23 24 24 25 26 26 27 28 28 30 31 33 34 36 38 38 38 37 36 34 34 36 34 31 30 30 29 28 29 28 26 24 26 30 36 33 28 25 24 27 34 38 37 36 36 36 36 35 33 31 32
20 20 20 21 22 22 23 24 25 25 25 26 26 27 27 28 28 28 27 26 25 25 24 25 25 25 25 24 24 23 22 23 nan 23 24 25 26 27 28 29 29 30 30 33 33 34 36 37 38 40 40 39 36 33 35 34 31 30 30 29 25 24 26 27 28 25 26 28 29 31 29 29 23 22 32 38 38 39 38 35 35 33 32 30 34
23 23 23 23 24 24 25 27 28 28 28 28 28 28 28 28 29 30 30 29 27 25 24 23 24 25 24 23 23 23 23 23 23 nan 25 26 27 28 29 30 31 32 33 34 36 38 39 40 41 40 39 37 35 34 31 30 28 27 27 28 27 27 26 25 27 29 27 27 26 28 28 30 28 24 24 35 38 38 38 39 38 39 34 30 33
24 24 25 24 26 27 28 29 30 31 30 30 30 30 29 30 31 31 31 30 28 27 25 24 24 25 24 23 23 23 23 23 24 nan 27 28 29 29 30 31 32 32 34 35 37 39 41 41 42 42 40 37 33 31 29 27 26 25 25 25 26 27 27 25 26 27 28 26 27 30 31 29 27 28 28 29 35 40 41 42 42 38 39 33 36
25 26 26 26 25 27 29 30 31 32 33 32 32 31 30 30 31 31 32 31 30 28 26 24 25 25 25 24 24 24 24 24 26 nan nan 30 31 31 31 32 33 33 34 35 37 39 41 42 42 41 39 36 33 30 29 28 27 26 25 24 23 26 28 27 26 23 25 25 27 27 29 33 33 31 29 31 30 38 38 39 43 40 39 40 40
26 27 28 29 29 30 31 31 32 33 34 34 34 34 32 31 32 32 33 32 30 29 28 26 26 27 27 26 26 27 26 27 28 29 30 30 32 32 33 33 33 34 35 36 37 38 nan nan 41 40 37 34 32 31 30 29 28 28 28 27 27 27 27 28 28 23 24 25 25 29 28 31 34 33 34 34 36 36 36 38 40 38 37 41 39
29 30 31 32 32 32 32 32 33 33 35 35 36 35 33 33 33 33 33 33 32 31 30 28 28 28 29 28 28 28 29 28 30 31 31 32 32 33 33 34 34 34 35 36 37 38 38 39 nan nan 35 33 31 31 30 28 27 26 27 28 27 29 29 28 29 26 25 25 27 29 28 31 34 33 36 38 34 33 32 35 40 38 36 40 37
31 31 33 34 34 34 33 33 33 34 35 36 37 37 35 34 34 34 33 33 33 33 32 31 30 30 31 31 30 30 29 29 nan nan nan 32 33 33 33 33 34 35 36 36 37 38 37 37 36 34 33 32 31 31 30 28 27 27 27 27 28 29 29 29 30 31 29 28 29 29 34 35 32 29 32 37 36 34 29 30 37 40 37 36 37
33 33 35 35 35 35 34 33 34 35 36 37 39 37 35 34 34 35 34 33 33 33 33 33 32 32 33 33 33 32 nan nan nan nan nan 32 33 34 34 35 35 35 36 36 37 37 36 35 34 32 31 31 31 31 30 29 29 30 28 28 29 29 28 28 30 30 30 31 30 30 32 33 31 29 28 34 37 34 31 29 31 36 33 32 34
33 35 36 35 35 35 34 34 35 36 36 38 39 38 36 35 35 35 34 33 33 33 34 34 33 33 34 34 35 34 33 nan nan nan nan 33 33 33 33 34 35 35 37 36 36 36 34 32 32 30 30 29 29 30 30 29 29 30 30 29 28 29 29 27 26 27 30 31 31 29 29 30 31 29 29 31 34 33 32 31 31 34 32 32 34
33 35 35 35 36 35 35 35 36 37 37 38 39 38 37 36 37 36 35 34 32 34 35 34 35 35 35 36 36 36 35 nan nan nan nan nan 35 34 34 34 35 35 36 36 36 35 32 30 29 29 28 28 28 29 30 30 31 33 33 32 29 27 28 29 28 28 29 30 30 31 31 31 32 32 31 33 34 34 33 34 33 31 26 25 28
32 33 34 35 36 36 35 35 36 38 37 37 38 38 35 36 37 37 36 34 33 33 34 35 35 36 35 35 36 37 35 35 nan nan nan nan 36 36 35 35 35 36 37 37 36 35 32 29 28 28 27 28 29 29 30 31 33 34 34 33 30 29 28 30 30 29 28 28 28 30 32 32 33 33 31 31 33 35 35 36 38 37 31 27 31
32 32 34 35 36 36 35 35 36 38 37 37 38 38 36 35 35 35 34 34 32 33 35 35 36 36 35 36 37 36 35 nan nan nan nan 35 36 36 36 35 34 36 37 37 36 35 33 30 29 29 28 29 29 30 31 33 33 33 33 35 34 33 27 26 29 29 29 29 29 29 30 nan 33 32 32 32 31 34 36 34 35 38 36 32 31
33 33 34 36 37 36 36 37 37 38 37 38 38 38 37 36 35 35 34 33 nan 33 35 36 37 37 37 37 37 37 36 nan nan nan nan nan nan nan nan 35 34 35 36 38 37 35 33 31 30 30 30 31 31 33 35 35 35 34 33 34 32 30 26 22 24 25 25 27 27 29 30 32 35 33 33 34 32 31 36 36 33 35 35 34 33
31 32 33 36 39 38 38 39 39 39 38 39 39 38 38 37 37 36 36 34 32 33 35 37 38 38 38 38 38 38 36 nan nan nan nan nan nan nan nan nan 35 35 36 37 36 35 33 32 31 31 32 34 35 36 36 37 36 35 33 36 33 28 24 21 21 21 21 24 25 27 29 31 33 33 33 36 38 37 36 38 35 36 37 36 32
33 34 35 38 40 41 40 40 39 39 39 39 40 41 40 39 38 37 36 37 35 34 34 35 36 37 38 38 38 38 37 nan nan nan nan nan nan nan nan nan 35 35 36 36 36 35 33 33 33 33 33 35 36 37 38 38 37 35 33 31 29 28 24 21 22 21 nan 21 nan nan nan nan 31 34 nan 34 38 37 37 38 37 36 38 37 35
36 38 39 40 41 41 42 41 40 40 40 40 41 42 42 42 40 38 38 37 36 35 35 35 36 37 38 38 39 39 nan nan nan nan nan nan nan nan nan nan nan nan nan nan nan 35 33 32 33 34 35 36 38 40 40 39 36 34 32 30 29 26 23 22 23 23 nan nan nan nan nan nan nan 31 35 nan 34 35 35 36 35 34 36 38 36
35 37 38 39 40 43 45 43 42 42 41 42 42 43 43 44 42 41 40 39 38 36 35 35 36 36 38 39 39 39 39 nan nan nan nan nan nan nan nan nan nan nan nan nan nan 32 33 33 33 35 36 36 38 40 41 39 36 33 30 29 28 26 24 25 25 nan nan nan nan nan nan nan nan nan nan nan 32 34 38 35 35 33 33 34 36
34 35 38 39 40 43 45 45 44 43 43 42 43 44 45 45 44 43 42 40 39 38 37 38 38 38 39 39 39 40 nan nan nan nan nan nan nan nan nan nan nan nan nan nan nan 32 32 34 35 36 37 38 39 40 39 38 34 31 30 28 27 25 24 25 25 nan nan nan nan nan nan nan nan nan nan nan 38 34 37 36 37 34 32 33 34
37 37 38 40 41 43 45 46 45 46 45 45 45 46 46 45 43 43 42 41 39 39 39 39 40 40 41 40 41 41 nan nan nan nan nan 41 42 42 40 nan nan nan nan nan nan 32 33 34 35 36 37 39 39 39 38 37 32 29 29 27 25 24 22 24 24 nan nan nan nan nan nan nan nan 28 nan nan nan nan 43 43 40 36 33 33 37
37 38 39 40 43 45 46 47 47 47 47 46 46 47 47 45 44 44 42 40 39 40 40 41 41 42 42 42 42 42 42 nan nan 41 41 42 42 nan nan nan nan nan nan nan 33 33 34 35 36 38 38 40 39 38 41 41 33 29 27 26 24 23 23 23 23 nan nan nan nan nan nan nan nan nan nan 44 nan nan nan nan 37 35 32 36 36
35 38 40 41 44 46 48 48 48 48 49 48 48 47 46 43 44 43 42 39 39 41 43 43 43 43 42 42 43 43 42 41 41 42 42 43 43 42 nan nan nan nan nan 36 35 35 35 36 36 37 38 39 38 37 42 38 34 29 27 24 23 22 23 24 23 nan nan nan nan nan nan nan nan nan nan nan nan nan nan nan nan nan nan nan 37
35 38 40 43 44 46 48 49 49 50 50 48 49 47 45 44 44 42 39 39 40 42 44 45 44 44 43 43 43 42 41 41 41 42 43 43 44 43 nan nan nan nan nan nan 35 36 36 37 38 38 37 38 35 37 40 36 31 28 27 24 22 22 24 24 24 22 nan nan nan nan nan nan nan nan nan nan nan nan nan nan nan nan nan nan nan
34 37 40 42 43 45 48 50 50 50 50 50 48 45 44 44 43 41 40 40 42 44 46 46 45 44 44 43 42 41 41 41 42 42 43 43 44 43 nan nan nan nan nan 37 36 36 38 38 38 37 35 34 30 39 38 33 29 26 25 24 22 22 23 23 22 21 19 nan 18 17 nan nan nan nan nan nan nan nan nan nan nan nan nan nan nan
34 36 38 40 41 44 48 50 50 51 50 48 45 44 44 43 41 41 42 43 44 46 46 47 46 45 44 43 42 41 41 42 43 43 44 44 44 42 nan nan nan nan nan 37 36 37 38 38 37 36 34 32 27 36 31 32 28 26 25 23 22 21 23 23 21 19 17 17 17 16 19 nan nan nan nan nan nan nan nan nan nan nan nan nan nan
33 34 36 38 40 46 48 50 50 49 48 45 44 44 43 42 41 42 45 46 47 47 48 47 46 46 45 44 42 42 42 43 43 45 46 46 44 nan nan nan nan nan nan 37 37 36 36 36 35 33 29 28 28 35 29 29 28 25 23 23 22 22 22 23 23 19 16 17 17 14 16 22 nan nan nan nan nan nan nan nan nan nan nan nan nan
31 33 35 38 41 46 48 49 48 48 45 44 44 42 41 41 43 44 46 47 48 49 49 48 47 46 45 44 43 43 43 43 44 46 46 45 nan nan nan nan 39 37 37 36 35 33 32 32 31 28 26 25 25 35 29 29 28 25 24 24 21 22 22 22 23 20 16 15 15 12 14 20 24 nan nan nan nan nan nan nan nan nan nan nan nan
31 33 36 39 42 44 48 49 47 45 43 43 42 42 41 42 44 46 47 48 50 51 50 49 47 46 45 44 44 43 42 43 43 44 44 44 nan nan nan nan 39 37 nan nan 34 nan 30 31 27 20 16 19 22 32 31 30 29 27 25 22 20 21 22 22 22 23 18 12 12 12 10 19 24 26 29 nan nan nan nan nan nan nan nan nan nan
33 35 38 40 41 44 46 45 45 43 43 42 41 42 43 44 44 46 47 49 51 51 51 48 46 45 45 44 44 43 42 43 44 43 43 42 nan nan nan 42 39 35 33 34 33 nan nan 29 27 22 20 16 15 22 34 31 30 29 26 22 21 21 22 22 23 25 24 15 12 11 7 14 24 26 26 31 nan nan nan nan nan nan nan nan nan
37 38 41 43 42 44 45 44 43 43 43 42 43 44 45 45 45 46 47 49 51 50 49 47 46 44 44 45 44 43 42 43 43 42 42 41 44 44 nan 43 42 37 35 34 35 29 25 22 18 16 16 16 17 17 31 33 32 29 28 25 23 21 21 22 24 27 27 21 14 12 9 7 17 23 24 26 nan nan nan nan nan nan nan nan nan
40 40 42 44 45 45 44 44 42 41 42 43 45 46 45 45 45 45 45 48 49 49 48 46 43 43 45 45 45 44 43 42 42 41 40 47 51 48 45 43 41 nan 37 35 36 31 26 23 20 17 15 12 14 16 25 34 30 29 29 26 24 21 20 21 24 27 27 21 17 13 12 6 7 17 23 25 nan nan nan nan nan nan nan nan nan
41 42 43 44 43 43 44 43 42 41 41 42 45 45 45 45 45 45 45 47 48 47 46 44 42 44 45 46 45 44 43 43 40 38 46 50 51 48 48 48 44 40 37 35 33 31 27 23 20 17 14 15 16 14 17 30 30 29 27 29 24 22 20 20 23 26 26 23 19 15 11 8 4 7 16 23 25 nan nan nan nan nan nan nan nan
41 45 44 44 44 43 43 42 41 40 40 42 44 45 46 47 46 46 48 48 48 46 46 46 47 47 45 44 43 43 43 44 45 44 46 52 52 49 47 45 42 39 36 33 32 30 27 22 20 19 18 13 12 9 16 28 29 26 26 28 25 22 21 20 21 25 25 24 22 19 14 8 7 8 7 17 23 nan nan nan nan nan nan nan nan
45 45 44 44 43 42 41 39 38 38 41 44 45 46 47 48 46 47 47 48 49 50 52 52 49 47 45 44 43 43 43 44 47 48 49 49 50 48 45 43 39 37 34 32 31 29 26 22 19 18 16 14 16 18 17 19 24 26 22 23 23 21 16 18 22 23 24 24 23 19 16 12 3 11 nan 9 nan nan nan nan nan nan nan nan nan
42 44 44 43 41 40 39 37 35 41 43 43 44 45 46 46 45 46 48 50 52 54 54 51 47 46 45 43 43 43 44 45 46 48 50 49 48 45 42 39 36 33 32 31 31 28 26 23 19 18 17 15 17 20 22 21 21 22 nan nan nan nan nan nan 22 24 25 25 24 20 16 9 4 nan nan nan nan nan nan nan nan nan nan nan nan
43 44 44 42 40 40 39 40 43 44 42 43 44 45 46 45 45 46 48 51 53 53 52 49 46 44 44 43 43 43 44 45 46 48 48 47 46 44 40 38 35 32 30 30 29 27 25 21 20 18 17 14 16 20 25 24 21 19 18 18 18 nan nan nan nan 25 26 25 22 17 nan nan nan nan nan nan 9 19 nan nan nan nan nan nan nan
48 48 46 43 42 41 40 41 41 40 42 42 43 43 43 44 45 48 50 52 54 52 50 47 45 44 44 44 43 44 44 44 44 45 46 46 45 44 40 38 35 32 30 28 26 26 22 20 20 19 17 17 17 23 20 23 20 17 14 19 nan nan 16 21 25 24 23 21 22 22 nan 17 14 11 6 1 7 15 20 nan nan nan nan nan nan
47 47 46 44 42 40 39 39 39 42 41 42 42 42 41 41 44 48 52 54 53 52 49 46 45 46 46 45 45 43 42 44 44 44 44 44 43 42 40 38 34 31 30 28 23 20 21 20 21 22 20 17 19 25 23 22 nan nan 16 16 16 17 19 18 18 22 26 25 21 23 24 20 nan 14 10 4 3 13 17 16 15 nan nan nan nan
48 48 46 44 42 40 40 40 41 43 44 42 42 42 43 43 46 48 51 52 52 49 47 46 46 45 45 46 44 nan 43 41 42 42 40 41 43 41 35 33 32 31 30 26 21 19 20 21 19 20 19 18 19 24 25 nan nan nan nan nan nan 16 16 17 nan nan nan nan nan 24 28 25 21 16 12 8 4 5 11 16 17 19 nan nan nan
48 47 46 46 45 45 46 47 48 47 46 45 44 42 43 47 46 47 52 51 49 48 46 45 46 44 45 43 40 41 41 41 41 42 41 40 39 37 35 35 37 34 33 26 20 18 20 20 18 19 19 19 21 nan nan nan nan nan nan nan nan nan nan nan nan nan nan nan 22 nan 24 21 19 15 12 8 7 5 7 12 17 17 18 nan nan
49 48 48 49 50 50 51 51 51 48 48 47 47 46 45 44 48 50 50 50 50 47 44 41 43 42 40 41 40 37 38 38 nan nan nan 44 49 nan nan 33 37 38 nan nan nan 22 nan nan 17 19 nan nan nan nan nan nan nan nan nan nan nan nan nan nan nan nan nan nan 19 20 nan nan nan nan nan nan nan nan nan 9 11 16 18 18 nan
51 51 49 50 52 54 54 53 51 50 49 48 47 48 47 48 50 50 49 49 47 46 44 39 40 38 39 37 34 33 36 38 37 37 38 36 41 nan nan nan nan nan nan nan nan nan nan nan nan 18 nan nan nan nan nan nan nan nan nan nan nan nan nan nan nan nan 19 nan nan nan nan nan nan nan nan nan nan nan nan nan nan nan nan nan nan
Wind_Direction
345 349 355 0 3 5 9 3 358 350 344 339 336 335 334 329 321 318 311 313 316 313 306 310 321 319 328 321 319 319 318 316 319 321 324 319 315 325 333 329 327 325 322 319 320 321 320 320 322 321 317 314 nan nan nan nan 306 307 302 298 298 288 280 280 276 268 263 261 264 262 258 258 255 257 258 257 256 257 259 258 255 252 251 252 249
342 349 356 358 360 358 358 355 351 350 346 343 340 331 327 322 321 312 310 313 310 305 309 320 324 327 329 327 319 315 315 313 314 313 313 312 313 319 330 333 331 326 321 319 318 317 314 313 315 316 314 314 nan nan nan nan nan nan 300 294 295 297 290 285 282 275 265 261 263 263 262 260 258 257 257 258 256 256 257 258 258 257 255 252 251
345 353 342 349 349 349 348 346 346 350 348 347 341 339 333 330 323 315 313 309 305 315 329 332 330 331 335 332 322 313 316 321 316 310 310 306 308 312 314 317 319 318 316 315 317 318 318 317 316 317 319 317 315 317 316 315 308 305 303 297 292 298 296 285 285 283 263 260 260 259 257 252 257 258 252 248 253 257 255 255 258 258 257 253 250
336 334 337 338 338 342 346 348 347 345 340 339 340 340 335 329 325 319 312 310 319 333 326 313 325 333 342 339 329 320 308 308 307 308 309 308 310 310 310 312 314 315 316 316 315 318 320 321 317 316 316 315 315 314 315 313 309 306 305 308 306 303 302 294 291 288 271 263 257 260 257 254 248 258 258 254 251 252 253 255 254 252 253 254 252
329 329 331 328 334 342 345 349 348 343 339 335 331 324 327 325 320 319 312 307 313 323 331 333 330 318 320 309 306 304 306 304 305 310 313 312 317 313 312 312 314 314 317 319 321 323 322 318 315 314 314 313 310 311 311 311 309 308 307 306 309 307 302 295 294 294 286 269 256 257 258 256 256 252 252 252 254 254 256 253 251 251 251 254 256
329 330 333 332 336 335 340 345 348 345 342 332 323 320 321 318 317 314 312 310 306 303 306 312 312 309 306 304 301 303 304 305 305 307 311 313 315 317 315 313 309 312 313 314 316 316 318 318 316 313 311 310 311 311 307 305 306 305 302 301 304 305 299 289 284 286 285 278 269 262 258 250 249 251 252 248 250 250 245 243 245 249 254 256 256
327 330 332 333 334 335 339 343 345 343 340 329 326 323 321 319 317 314 309 305 301 300 304 310 310 309 305 308 306 308 308 310 309 309 311 313 315 315 314 312 309 308 307 306 307 308 310 311 310 308 305 304 304 301 300 299 297 298 298 299 297 292 290 288 283 274 275 281 274 268 263 254 246 251 255 250 245 245 241 240 244 246 248 255 258
323 328 329 332 332 334 336 336 337 338 329 328 329 328 326 323 320 316 312 307 305 306 305 307 311 313 313 313 315 311 311 311 311 310 311 312 313 310 310 310 306 303 303 301 301 302 304 306 306 305 303 298 295 297 298 297 295 294 294 294 293 289 287 283 278 274 276 275 275 271 271 260 251 249 250 252 247 239 234 231 232 243 239 240 248
326 323 327 329 327 329 329 331 333 329 325 330 327 325 325 322 319 316 314 312 310 308 310 312 313 315 315 317 318 317 313 313 nan 310 311 311 312 309 308 305 305 302 301 299 298 299 302 306 308 307 305 304 303 302 299 303 302 295 292 291 292 289 288 286 279 275 274 274 270 269 263 259 258 256 254 254 249 240 228 226 229 236 236 241 243
325 324 322 325 326 328 328 329 327 328 327 325 323 324 324 321 320 319 319 320 317 316 316 314 314 316 317 318 315 315 314 313 314 314 315 314 313 310 308 307 305 303 302 300 300 298 300 302 304 305 306 305 305 306 305 296 294 297 291 288 288 289 287 289 287 276 270 266 267 265 256 248 255 254 256 255 246 238 226 222 228 230 233 240 247
318 320 319 321 323 323 322 326 324 323 323 323 325 326 325 323 323 325 323 323 324 322 318 313 312 313 315 314 311 310 312 313 nan 318 317 315 314 312 311 311 309 307 306 304 302 301 302 303 303 303 304 303 305 304 299 303 301 297 296 296 294 293 285 284 286 279 271 266 267 268 261 257 259 259 260 256 243 232 227 220 227 231 230 231 244
315 314 317 318 314 314 321 325 321 320 320 324 325 325 326 325 327 326 326 327 326 322 317 310 309 311 312 310 309 310 311 315 315 nan 316 315 314 315 314 314 311 310 309 306 306 304 307 308 306 305 304 303 304 305 305 303 305 303 302 298 294 293 290 286 282 283 280 269 266 265 264 260 257 253 253 251 242 233 228 219 219 227 233 238 236
312 309 310 313 313 317 322 319 317 318 320 324 326 326 326 328 329 329 328 327 325 323 317 312 310 311 313 311 311 311 313 315 316 nan 317 317 317 317 316 315 313 311 309 308 307 307 310 310 308 306 304 303 304 304 304 304 303 304 300 302 300 297 292 285 281 281 278 273 270 267 261 255 253 253 252 249 247 239 232 224 220 223 231 230 237
307 305 307 310 313 314 316 314 314 316 319 322 323 322 324 326 328 328 325 325 324 322 317 311 309 311 314 314 312 313 314 316 318 nan nan 319 319 320 318 316 314 312 309 308 308 309 311 311 310 307 304 303 303 302 303 303 302 301 299 298 297 294 295 292 285 278 276 276 268 263 264 260 255 253 251 254 249 245 241 232 222 223 225 226 228
301 302 306 309 311 312 310 310 311 313 317 319 319 319 321 324 325 325 325 325 325 324 320 313 310 313 315 315 314 314 315 317 317 318 319 320 321 321 320 317 315 310 310 309 309 310 nan nan 310 307 302 300 301 301 301 301 301 300 301 299 296 293 292 289 281 275 274 273 265 256 251 258 256 252 249 249 250 249 245 236 223 221 225 226 226
300 302 305 308 308 309 308 308 310 312 316 317 317 317 320 322 322 323 324 325 327 325 321 314 311 313 316 314 313 313 314 316 319 320 321 321 321 321 320 317 314 311 310 310 309 312 314 315 nan nan 302 298 299 300 301 301 301 302 303 305 302 293 288 280 280 278 268 265 264 260 257 253 251 249 253 253 249 247 245 235 228 223 223 220 222
298 300 302 307 307 308 307 308 310 313 314 315 314 317 320 320 320 320 321 324 325 325 321 316 313 313 314 314 313 312 313 315 nan nan nan 319 320 320 319 315 314 313 310 309 310 313 317 317 314 308 302 298 298 300 302 303 306 308 307 309 308 300 294 285 277 272 269 265 264 261 256 249 244 245 249 251 246 244 242 233 226 221 220 219 221
296 298 301 304 305 307 307 307 311 313 314 313 314 315 318 318 318 317 319 322 324 323 322 318 315 313 312 314 313 312 nan nan nan nan nan 318 318 318 318 317 314 310 309 308 310 314 317 319 316 309 303 299 298 300 302 305 311 312 312 308 303 298 297 292 282 272 264 259 258 259 259 253 248 245 247 253 250 245 242 237 228 226 223 220 230
296 299 299 301 301 305 307 309 311 311 311 311 312 314 316 318 317 316 317 319 321 320 319 317 316 312 311 311 312 312 312 nan nan nan nan 319 317 316 316 315 314 312 311 309 310 313 317 317 315 310 305 301 301 301 301 303 308 311 311 307 298 293 289 288 281 273 267 262 259 254 248 250 253 248 245 242 247 242 234 237 236 232 224 227 235
302 300 299 300 302 306 309 309 310 310 310 310 312 313 318 317 315 314 314 315 318 319 318 318 315 313 311 311 312 312 313 nan nan nan nan nan 319 317 316 314 313 311 310 310 311 314 316 317 314 310 308 306 304 302 300 302 306 311 308 306 298 289 283 280 279 275 268 261 252 249 252 249 245 247 247 245 244 241 233 236 240 234 230 235 244
310 306 303 302 303 306 307 307 307 307 307 309 310 313 316 315 315 315 315 316 318 318 317 316 314 313 312 313 313 313 313 314 nan nan nan nan 321 320 317 314 312 311 311 311 314 316 319 318 316 314 311 309 306 305 302 303 307 307 308 307 300 286 279 276 276 273 269 261 249 243 244 247 247 248 248 246 248 245 239 236 237 235 235 240 244
316 314 310 305 304 306 306 306 305 306 309 311 308 310 314 315 315 316 316 315 315 315 315 314 314 314 313 313 314 313 313 nan nan nan nan 320 320 320 318 315 314 312 312 313 315 317 318 318 318 317 315 312 308 306 304 303 304 304 304 302 295 290 283 276 271 268 267 266 255 245 237 nan 243 246 246 249 246 243 242 236 234 237 237 233 241
319 316 311 307 306 306 305 307 306 305 306 307 306 309 312 315 316 315 314 313 nan 312 312 313 314 315 315 314 315 314 314 nan nan nan nan nan nan nan nan 317 314 312 313 314 316 318 319 319 319 318 315 311 310 306 304 303 304 304 302 296 294 293 291 279 269 269 265 262 257 249 240 237 240 241 244 246 246 242 241 238 233 232 237 239 240
319 314 308 305 304 303 301 302 300 301 304 306 306 309 311 314 315 314 315 313 311 309 312 314 315 317 316 315 315 315 315 nan nan nan nan nan nan nan nan nan 315 313 313 315 317 319 321 321 320 319 316 313 311 308 306 304 304 303 300 298 300 300 294 283 272 269 264 264 256 249 245 238 235 234 236 241 245 242 240 238 234 233 232 236 240
316 313 308 305 304 303 301 300 299 300 302 303 305 308 310 313 314 314 312 311 310 310 311 312 315 317 317 315 315 315 316 nan nan nan nan nan nan nan nan nan 314 314 314 315 317 318 321 323 320 319 316 313 311 310 308 306 305 304 302 299 299 299 295 281 275 270 nan 270 nan nan nan nan 234 232 nan 235 241 240 237 234 233 233 232 237 241
314 310 308 309 306 302 299 300 299 300 302 303 305 308 310 311 313 313 311 310 310 310 310 312 314 316 316 316 315 316 nan nan nan nan nan nan nan nan nan nan nan nan nan nan nan 317 318 321 321 319 317 315 313 311 309 309 308 306 304 300 299 299 291 281 277 276 nan nan nan nan nan nan nan 230 225 nan 231 235 234 233 232 231 232 232 233
311 308 303 301 300 302 300 300 300 301 302 303 305 308 309 309 312 313 311 311 311 310 310 312 315 315 316 316 316 316 315 nan nan nan nan nan nan nan nan nan nan nan nan nan nan 316 317 318 319 318 317 315 314 312 311 312 311 308 304 303 302 300 293 288 286 nan nan nan nan nan nan nan nan nan nan nan 224 231 236 230 229 230 232 230 233
307 306 306 305 301 299 299 299 300 300 301 302 305 306 308 309 312 313 312 312 310 310 311 314 316 316 317 317 317 316 nan nan nan nan nan nan nan nan nan nan nan nan nan nan nan 314 313 314 315 316 316 315 313 313 312 311 310 307 304 303 303 300 296 294 287 nan nan nan nan nan nan nan nan nan nan nan 217 224 232 227 226 231 231 230 233
310 311 309 306 304 300 299 299 300 301 303 303 304 305 306 309 312 311 311 311 310 310 313 316 317 318 318 318 317 317 nan nan nan nan nan 317 314 313 316 nan nan nan nan nan nan 311 311 313 313 313 315 314 312 311 311 308 306 305 302 303 305 305 300 295 290 nan nan nan nan nan nan nan nan 211 nan nan nan nan 219 219 225 226 227 232 235
310 310 308 306 304 301 301 300 300 302 302 303 303 304 307 310 311 310 310 309 310 313 316 317 317 318 318 318 318 318 317 nan nan 315 316 316 313 nan nan nan nan nan nan nan 310 309 311 311 310 310 313 310 310 310 306 305 307 304 301 305 308 308 307 298 290 nan nan nan nan nan nan nan nan nan nan 209 nan nan nan nan 214 221 227 231 230
307 306 306 304 303 302 301 301 301 302 302 302 303 305 308 312 311 311 309 310 313 316 317 317 318 319 318 317 317 317 316 315 314 316 318 316 314 317 nan nan nan nan nan 310 311 310 308 307 307 308 307 307 307 308 308 310 311 314 310 307 311 313 311 305 295 nan nan nan nan nan nan nan nan nan nan nan nan nan nan nan nan nan nan nan 233
304 304 303 302 303 303 302 301 301 301 302 302 303 307 310 312 310 309 310 312 315 317 317 317 318 318 318 317 317 316 315 314 315 318 319 318 317 317 nan nan nan nan nan nan 309 309 309 307 307 306 305 305 306 307 310 310 312 313 313 313 317 317 316 312 302 289 nan nan nan nan nan nan nan nan nan nan nan nan nan nan nan nan nan nan nan
299 300 301 303 305 303 301 300 300 301 301 302 305 310 311 310 309 309 309 312 315 316 316 316 317 317 317 316 315 315 314 315 316 318 319 319 316 316 nan nan nan nan nan 310 310 310 308 307 307 307 305 304 303 304 310 309 312 317 316 320 322 321 321 315 304 296 284 nan 278 269 nan nan nan nan nan nan nan nan nan nan nan nan nan nan nan
297 299 300 301 300 298 297 298 298 300 303 305 309 310 308 307 307 307 310 312 313 313 314 316 316 316 316 315 315 315 316 317 318 319 320 319 316 316 nan nan nan nan nan 312 311 310 310 309 309 309 308 304 302 296 308 309 315 318 318 325 325 325 325 319 308 297 287 285 293 275 250 nan nan nan nan nan nan nan nan nan nan nan nan nan nan
295 297 298 298 298 294 294 295 298 302 303 306 307 306 305 305 304 306 309 311 312 313 315 316 317 316 316 316 316 316 317 317 318 319 320 319 317 nan nan nan nan nan nan 312 312 311 310 310 309 309 308 305 299 305 315 315 316 317 322 326 327 327 327 323 315 304 295 304 312 297 262 242 nan nan nan nan nan nan nan nan nan nan nan nan nan
293 296 297 296 294 293 294 294 296 300 304 306 305 306 305 304 304 307 308 310 312 314 316 318 318 316 316 316 316 315 316 317 318 320 320 318 nan nan nan nan 313 313 311 312 313 312 311 312 313 314 314 310 301 314 320 319 317 321 323 322 324 326 331 329 317 309 306 316 327 312 267 248 241 nan nan nan nan nan nan nan nan nan nan nan nan
293 297 298 296 294 294 292 291 295 300 302 303 303 303 303 304 307 308 310 312 314 315 317 318 317 316 315 315 315 314 314 316 316 318 319 318 nan nan nan nan 314 314 nan nan 309 nan 303 297 293 296 301 309 309 315 321 319 319 323 320 318 320 324 328 331 322 313 313 327 338 329 275 243 239 234 224 nan nan nan nan nan nan nan nan nan nan
295 295 294 294 293 292 290 295 300 302 303 303 304 303 303 305 308 310 313 315 316 317 317 317 316 315 314 313 313 313 313 314 316 318 319 317 nan nan nan 313 312 311 313 309 302 nan nan 304 307 301 300 304 304 306 318 319 322 326 324 319 318 322 327 329 325 321 319 326 347 11 332 246 230 228 221 216 nan nan nan nan nan nan nan nan nan
299 301 299 297 296 294 295 298 301 303 304 304 305 307 306 309 312 316 316 316 317 317 317 316 315 314 312 311 311 312 313 314 316 317 316 315 312 310 nan 313 312 312 304 298 296 298 296 296 290 285 289 297 305 305 315 319 323 327 323 320 321 319 323 325 324 324 323 325 334 347 4 280 235 222 214 214 nan nan nan nan nan nan nan nan nan
299 300 299 298 296 295 298 302 301 303 305 306 305 307 311 313 316 318 317 316 316 315 316 315 314 312 311 309 310 311 313 314 315 317 313 307 310 314 315 315 315 nan 309 300 296 295 292 291 295 293 290 289 296 313 309 320 324 327 328 321 319 319 320 321 321 322 324 327 327 330 345 341 221 205 210 209 nan nan nan nan nan nan nan nan nan
300 299 300 298 298 297 299 301 301 302 303 304 305 308 312 313 314 316 317 315 314 315 315 315 314 312 310 310 311 312 314 314 312 311 309 310 310 314 316 316 319 318 312 303 297 292 290 292 294 293 293 300 310 303 301 316 323 326 327 324 320 323 323 320 319 322 328 332 328 324 338 3 70 172 201 205 206 nan nan nan nan nan nan nan nan
296 297 298 299 301 300 302 304 301 302 302 301 303 306 308 310 314 318 318 316 316 316 315 314 312 310 309 309 311 313 315 314 315 315 314 311 315 317 317 319 319 316 311 303 298 292 290 292 297 297 302 297 289 306 309 308 318 322 325 326 324 326 326 320 320 325 330 335 333 327 329 348 69 100 173 199 194 nan nan nan nan nan nan nan nan
296 299 300 299 297 299 302 305 305 304 299 299 304 308 310 312 317 320 318 317 317 314 311 310 309 309 309 310 312 315 315 315 315 315 315 314 316 319 319 319 319 316 311 304 297 289 283 281 285 288 282 289 301 296 308 302 307 311 316 320 330 333 331 326 331 332 333 339 338 333 334 332 60 100 nan 174 nan nan nan nan nan nan nan nan nan
297 297 297 299 295 295 296 301 301 297 297 300 305 306 309 313 318 316 315 314 312 309 307 308 309 310 311 312 314 314 314 314 315 315 315 316 317 317 318 317 317 314 310 304 297 288 282 283 287 282 278 276 282 293 298 303 302 306 nan nan nan nan nan nan 332 336 338 342 345 342 330 311 52 nan nan nan nan nan nan nan nan nan nan nan nan
293 294 294 295 295 294 293 293 292 293 296 301 304 309 310 314 314 313 312 311 308 307 307 309 312 312 312 313 312 312 311 312 313 315 316 316 317 317 318 317 315 312 308 304 299 288 277 275 278 276 277 278 291 305 292 294 301 315 327 333 330 nan nan nan nan 339 343 344 345 349 nan nan nan nan nan nan 167 182 nan nan nan nan nan nan nan
286 285 287 290 291 292 294 296 295 295 296 299 302 306 310 313 312 311 310 309 309 309 311 313 313 311 311 311 310 309 309 309 312 315 316 316 316 318 319 315 312 307 304 303 299 290 284 279 271 273 278 289 285 275 283 289 284 289 303 315 nan nan 344 340 342 344 354 3 7 3 nan 2 359 360 8 22 183 183 182 nan nan nan nan nan nan
287 286 287 288 290 294 296 298 297 297 298 300 304 306 308 307 307 308 309 309 311 312 313 311 310 308 307 306 306 307 308 311 315 315 315 316 317 319 317 313 309 306 301 298 294 282 273 272 273 267 269 270 268 281 285 281 nan nan 291 291 304 313 324 333 330 327 335 338 344 349 346 350 nan 6 6 3 156 172 191 196 186 nan nan nan nan
289 291 291 291 293 295 295 295 292 293 294 295 299 303 306 306 308 310 308 309 312 312 311 310 308 306 306 306 308 nan 312 313 313 313 313 314 318 318 315 309 305 302 297 293 287 276 268 268 264 268 266 264 265 268 271 nan nan nan nan nan nan 311 312 311 nan nan nan nan nan 349 349 347 341 338 336 321 276 207 189 197 198 183 nan nan nan
291 292 292 291 290 289 287 287 288 288 290 293 296 298 299 300 303 305 307 310 310 307 304 303 303 306 307 308 310 313 313 312 311 313 315 315 313 314 310 305 292 286 282 279 274 269 270 265 259 256 257 263 265 nan nan nan nan nan nan nan nan nan nan nan nan nan nan nan 339 nan 326 333 332 327 332 323 302 260 201 195 200 199 191 nan nan
286 288 287 285 284 285 286 288 289 290 292 293 295 297 300 304 304 303 306 306 305 303 303 307 306 305 309 310 310 310 309 309 nan nan nan 310 300 nan nan 301 295 280 nan nan nan 261 nan nan 261 263 nan nan nan nan nan nan nan nan nan nan nan nan nan nan nan nan nan nan 323 313 nan nan nan nan nan nan nan nan nan 200 191 196 207 207 nan
285 284 282 281 282 284 286 288 289 291 293 294 295 297 299 300 300 303 305 306 307 306 304 303 306 308 301 302 305 307 308 310 311 312 313 315 314 nan nan nan nan nan nan nan nan nan nan nan nan 265 nan nan nan nan nan nan nan nan nan nan nan nan nan nan nan nan 321 nan nan nan nan nan nan nan nan nan nan nan nan nan nan nan nan nan nan